TimeMDT,TemperatureF,Dew PointF,Humidity,Sea Level PressureIn,VisibilityMPH,Wind Direction,Wind SpeedMPH,Gust SpeedMPH,PrecipitationIn,Events,Conditions,WindDirDegrees,DateUTC
12:53 AM,50.0,45.0,83,29.64,5.0,SW,8.1,-,0.15,Rain,Rain,220,2011-10-06 06:53:00
1:53 AM,48.0,45.0,89,29.62,10.0,ESE,4.6,-,0.09,Rain,Light Rain,110,2011-10-06 07:53:00
2:53 AM,48.9,42.1,77,29.60,9.0,South,11.5,29.9,0.12,Rain,Light Rain,170,2011-10-06 08:53:00
3:53 AM,51.1,37.9,61,29.57,10.0,South,21.9,28.8,0.02,,Overcast,180,2011-10-06 09:53:00
4:53 AM,53.1,37.9,57,29.55,10.0,South,24.2,32.2,N/A,,Overcast,190,2011-10-06 10:53:00
5:53 AM,53.1,37.0,55,29.52,10.0,South,24.2,31.1,N/A,,Overcast,190,2011-10-06 11:53:00
6:53 AM,52.0,36.0,54,29.50,10.0,South,16.1,24.2,0.00,,Overcast,190,2011-10-06 12:53:00
7:53 AM,46.9,43.0,86,29.52,2.5,Variable,3.5,-,0.10,Rain,Heavy Rain,0,2011-10-06 13:53:00
8:07 AM,46.4,42.8,87,29.67,4.0,WNW,10.4,-,0.02,Rain,Light Rain,300,2011-10-06 14:07:00
8:12 AM,44.6,42.8,93,29.69,2.5,WSW,20.7,32.2,0.04,Rain,Rain,240,2011-10-06 14:12:00
8:14 AM,44.6,42.8,93,29.69,1.8,SW,28.8,39.1,0.06,Rain,Heavy Rain,230,2011-10-06 14:14:00
8:22 AM,44.6,41.0,87,29.68,1.2,SSW,21.9,39.1,0.12,Rain,Heavy Rain,210,2011-10-06 14:22:00
8:25 AM,44.6,42.8,93,29.68,1.5,SSW,26.5,34.5,0.14,Rain,Heavy Rain,210,2011-10-06 14:25:00
8:34 AM,44.6,41.0,87,29.68,1.5,SSW,27.6,44.9,0.20,Rain,Heavy Rain,200,2011-10-06 14:34:00
8:41 AM,44.6,42.8,93,29.68,2.5,SSW,24.2,36.8,0.21,Rain,Rain,200,2011-10-06 14:41:00
8:49 AM,44.6,39.2,81,29.71,4.0,West,18.4,33.4,0.23,Rain,Rain,280,2011-10-06 14:49:00
8:53 AM,39.9,37.0,89,29.59,3.0,WNW,27.6,38.0,0.25,Rain,Heavy Rain,300,2011-10-06 14:53:00
8:59 AM,37.4,35.6,93,29.72,2.5,WNW,23.0,38.0,0.02,Rain,Heavy Rain,290,2011-10-06 14:59:00
9:09 AM,37.4,35.6,93,29.73,5.0,WNW,19.6,33.4,0.04,Rain,Rain,290,2011-10-06 15:09:00
9:31 AM,35.6,33.8,93,29.74,10.0,West,9.2,-,0.04,,Overcast,280,2011-10-06 15:31:00
9:53 AM,36.0,34.0,93,29.66,9.0,Calm,Calm,-,0.05,Rain,Light Rain,0,2011-10-06 15:53:00
10:26 AM,37.4,35.6,93,29.81,3.0,SW,20.7,29.9,0.03,Rain,Rain,220,2011-10-06 16:26:00
10:53 AM,37.9,35.1,89,29.70,8.0,SSW,10.4,-,0.05,Rain,Light Rain,200,2011-10-06 16:53:00
11:09 AM,39.2,35.6,87,29.79,10.0,South,6.9,-,0.01,Rain,Light Rain,190,2011-10-06 17:09:00
11:21 AM,39.2,35.6,87,29.81,10.0,SSW,16.1,-,0.01,Rain,Light Rain,200,2011-10-06 17:21:00
11:53 AM,42.1,34.0,73,29.70,10.0,SW,10.4,-,0.01,,Overcast,220,2011-10-06 17:53:00
12:53 PM,45.0,34.0,65,29.68,10.0,South,15.0,20.7,N/A,,Overcast,180,2011-10-06 18:53:00
1:53 PM,48.0,34.0,58,29.68,10.0,SW,17.3,25.3,N/A,,Overcast,220,2011-10-06 19:53:00
2:53 PM,50.0,33.1,52,29.67,10.0,West,10.4,17.3,N/A,,Mostly Cloudy,260,2011-10-06 20:53:00
3:53 PM,50.0,30.0,46,29.68,10.0,WSW,11.5,21.9,N/A,,Partly Cloudy,240,2011-10-06 21:53:00
4:53 PM,50.0,28.0,43,29.70,10.0,SW,12.7,21.9,N/A,,Scattered Clouds,220,2011-10-06 22:53:00
5:53 PM,50.0,27.0,41,29.70,10.0,WSW,11.5,-,N/A,,Partly Cloudy,240,2011-10-06 23:53:00
7:53 PM,39.9,30.9,70,29.81,10.0,Calm,Calm,-,N/A,,Clear,0,2011-10-07 01:53:00
8:53 PM,37.0,32.0,82,29.87,10.0,Calm,Calm,-,N/A,,Scattered Clouds,0,2011-10-07 02:53:00
9:53 PM,36.0,32.0,86,29.91,10.0,East,4.6,-,N/A,,Clear,100,2011-10-07 03:53:00
10:53 PM,34.0,30.9,89,29.93,10.0,ENE,3.5,-,N/A,,Clear,70,2011-10-07 04:53:00
11:53 PM,33.1,30.9,92,29.91,10.0,ENE,5.8,-,N/A,,Clear,70,2011-10-07 05:53:00